[[{"header":{"parameterUnit":"m.s-1","parameterCategory":1,"la1":30.2991,"la2":30.254,"lo1":-89.0895,"lo2":-89.0444,"dy":0.0017,"dx":0.0017,"nx":28,"ny":28,"refTime":"2024-12-13T09:00:00:Z","depth":0,"parameterNumber":2,"parameterNumberName":"U-component_of_WINDS"},"data":[0,0,0,0,0,0,0,0,0,0,0,0,0,0,0,0,0,0,0,0,0,0,0,0,0,0,0,0,0,0,0,0,0,0,0,0,0,0,0,0,0,0,0,0,0,0,0,0,0,0,0,0,0,0,0,0,0,0,-4.8471,-4.8472,0,-4.8523,-4.8523,-4.8524,-4.8456,-4.8454,-4.8451,-4.8449,-4.8503,-4.8507,-4.8511,0,0,0,0,0,0,0,0,0,0,0,0,0,-4.8317,-4.832,-4.8471,-4.8472,-4.8472,-4.8523,-4.8523,-4.8524,-4.8456,-4.8453,-4.845,-4.8448,-4.8502,-4.8506,-4.8511,0,0,0,0,0,0,0,0,0,0,0,0,0,-4.8378,-4.8321,-4.8471,-4.8445,-4.8443,-4.8523,-4.8523,-4.8524,-4.8457,-4.8453,-4.845,-4.8446,-4.85,-4.8506,-4.8511,-4.862,0,0,-4.8529,-4.8531,0,0,0,0,0,0,0,0,-4.8375,-4.8384,-4.8448,-4.8447,-4.8445,-4.8479,-4.8489,-4.8556,-4.8458,-4.8452,-4.8449,-4.8444,-4.8498,-4.8504,-4.8522,-4.8623,-4.8625,-4.8529,-4.8533,-4.8535,-4.8537,0,0,0,0,0,0,0,-4.837,-4.8381,-4.8492,-4.8449,-4.8447,-4.8431,-4.8436,-4.8501,-4.8495,-4.8452,-4.8447,-4.8454,-4.8497,-4.8516,-4.8522,-4.8626,-4.8529,-4.8534,-4.8537,-4.854,-4.8821,-4.8825,0,0,0,0,0,0,-4.8369,-4.8378,-4.849,-4.8493,-4.84,-4.8437,-4.8442,-4.8472,-4.8494,-4.8494,-4.8457,-4.8451,-4.8509,-4.8516,-4.8524,-4.8654,-4.8535,-4.854,-4.8543,-4.8817,-4.8822,-4.8826,0,0,0,0,0,0,-4.8366,-4.838,-4.8488,-4.8434,-4.8447,-4.8444,-4.8478,-4.8475,-4.8494,-4.8498,-4.8497,-4.8478,-4.8506,-4.8516,-4.8597,-4.8655,-4.8543,-4.8548,-4.8812,-4.8818,-4.8824,-4.8914,0,0,0,0,0,0,-4.8362,-4.8379,-4.8419,-4.8436,-4.845,-4.8559,-4.8481,-4.8479,-4.8504,-4.8496,-4.8518,-4.8518,-4.8504,-4.8589,-4.8603,-4.866,-4.8552,-4.8807,-4.8815,-4.8822,-4.8905,-4.8922,-4.8936,0,0,0,0,0,-4.8357,-4.8442,-4.8421,-4.8435,-4.85,-4.8563,-4.8571,-4.8553,-4.8509,-4.855,-4.8553,-4.8517,-4.8647,-4.8598,-4.8613,-4.8673,-4.8803,-4.8812,-4.8821,-4.8898,-4.8919,-4.8936,0,0,0,0,0,0,-4.8432,-4.8444,-4.8421,-4.8514,-4.8538,-4.8551,-4.8602,-4.8574,-4.8611,-4.8602,-4.8579,-4.8585,-4.8671,-4.868,-4.8626,-4.8781,-4.8718,-4.873,-4.8771,-4.879,-4.8806,-4.8801,-4.8557,0,0,0,0,0,-4.8459,-4.8508,-4.8516,-4.8598,-4.8611,-4.8605,-4.8631,-4.8616,-4.864,-4.8649,-4.8658,-4.8683,-4.873,-4.8761,-4.8803,-4.8907,-4.8911,-4.8956,-4.8971,-4.8984,-4.8995,-4.9052,-4.9073,-4.8857,-4.8856,-4.8856,0,0,-4.8516,-4.8529,-4.8561,-4.8614,-4.863,-4.8683,-4.8614,-4.8671,-4.871,-4.8658,-4.8735,-4.8743,-4.877,-4.8863,-4.8904,-4.8873,-4.9056,-4.8996,-4.9006,-4.901,-4.9064,-4.9084,-4.9103,-4.8863,-4.8862,-4.8861,0,0,-4.8647,-4.8661,-4.8732,-4.875,-4.8777,-4.8772,-4.879,-4.8808,-4.8811,-4.8888,-4.885,-4.8897,-4.8977,-4.8998,-4.902,-4.9163,-4.9132,-4.9177,-4.9257,-4.9314,-4.9331,-4.9346,-4.9398,-4.9416,-4.9189,-4.9189,-4.9189,0,-4.8715,-4.8791,-4.8771,-4.8833,-4.8857,-4.8813,-4.8885,-4.8905,-4.8944,-4.8963,-4.8927,-4.9028,-4.9043,-4.9142,-4.9177,-4.9195,-4.9215,-4.9174,-4.933,-4.9345,-4.9358,-4.9408,-4.9427,-4.9194,-4.9194,-4.9193,-4.9193,0,-4.8874,-4.8928,-4.8982,-4.9022,-4.9053,-4.9119,-4.911,-4.9145,-4.9127,-4.9128,-4.9208,-4.9225,-4.9271,-4.9294,-4.9277,-4.9391,-4.9371,-4.9333,-4.9269,-4.9385,-4.9431,-4.9449,-4.9202,-4.92,-4.9198,-4.9197,0,0,-4.9051,-4.9081,-4.9101,-4.9119,-4.9147,-4.9189,-4.9254,-4.93,-4.933,-4.936,-4.9415,-4.9486,-4.9452,-4.9476,-4.9462,-4.9512,-4.9625,-4.9468,-4.9468,-4.9497,-4.9754,-4.9782,-4.9804,-4.9606,-4.9609,-4.9612,-4.9752,0,-4.9182,-4.9295,-4.928,-4.9389,-4.944,-4.94,-4.9458,-4.9482,-4.9485,-4.9529,-4.9532,-4.9583,-4.9534,-4.9549,-4.9596,-4.9601,-4.9677,-4.9591,-4.9658,-4.966,-4.9652,-4.9827,-4.9857,-4.9988,-4.9769,-4.9772,-4.9775,0,-4.9349,-4.9386,-4.95,-4.9522,-4.9542,-4.9594,-4.9636,-4.9679,-4.9706,-4.9705,-4.9734,-4.9712,-4.978,-4.9716,-4.981,-4.9752,-4.9779,-4.9786,-4.9791,-4.9796,-4.9724,-4.9838,-5.0029,-5.0049,-4.9802,-4.98,-4.9798,0,-4.9468,-4.9546,-4.9624,-4.9641,-4.9668,-4.9706,-4.972,-4.9743,-4.9773,-4.981,-4.9829,-4.9874,-4.9899,-4.9935,-4.9926,-4.988,-5.0023,-4.9957,-5.0024,-5.0025,-5.0055,-5.0053,-5.0253,-5.0073,-5.0073,-5.0072,-5.0072,0,-4.9616,-4.9687,-4.9678,-4.9726,-4.9806,-4.979,-4.9869,-4.9878,-4.99,-4.9951,-4.992,-4.9968,-4.9954,-5.0002,-4.9996,-5.0076,-5.0087,-5.0089,-5.0086,-5.0091,-5.0091,-5.0108,-5.0099,-5.0078,-5.0076,-5.0075,-5.0075,0,-4.976,-4.9757,-4.984,-4.9861,-4.9868,-4.9926,-4.9943,-4.999,-4.9991,-5.0056,-5.007,-5.0073,-5.0128,-5.0124,-5.0186,-5.0182,-5.028,-5.0267,-5.0271,-5.0268,-5.0336,-5.0329,-5.0553,-5.0582,-5.0383,-5.0385,-5.0387,0,-4.9854,-4.9909,-4.9935,-4.9967,-4.9983,-5.0034,-5.0064,-5.0052,-5.0085,-5.0122,-5.0165,-5.0217,-5.0259,-5.035,-5.0358,-5.0406,-5.0394,-5.0469,-5.04,-5.0405,-5.0395,-5.0392,-5.0398,-5.0482,-5.0484,-5.0486,-5.0488,0,-5.0022,-5.0019,-5.0063,-5.0108,-5.0145,-5.018,-5.0212,-5.024,-5.0231,-5.027,-5.0326,-5.0359,-5.0423,-5.0477,-5.0523,-5.0538,-5.0512,-5.051,-5.0528,-5.0533,-5.0533,-5.0535,-5.0308,-5.0504,-5.0502,-5.0501,-5.05,-5.05,-5.0144,-5.0192,-5.0218,-5.027,-5.0293,-5.0324,-5.0369,-5.0377,-5.0424,-5.0475,-5.0466,-5.053,-5.0559,-5.0619,-5.0639,-5.0689,-5.0662,-5.0688,-5.0695,-5.0702,-5.071,-5.0526,-5.0698,-5.0697,-5.0697,-5.0697,-5.0696,0,-5.0311,-5.0327,-5.0374,-5.042,-5.0462,-5.0434,-5.0469,-5.0505,-5.0562,-5.0591,-5.0633,-5.07,-5.0752,-5.0766,-5.0817,-5.0855,-5.0845,-5.0869,-5.0866,-5.087,-5.073,-5.071,-5.0877,-5.0876,-5.0876,-5.0876,-5.0876,-5.0876,-5.0402,-5.0481,-5.0481,-5.0572,-5.0588,-5.065,-5.0673,-5.0702,-5.0726,-5.0801,-5.0845,-5.0853,-5.0877,-5.093,-5.0978,-5.0981,-5.1001,-5.103,-5.1028,-5.0898,-5.0879,-5.0862,-5.0843,-5.1035,-5.1035,-5.1163,-5.1165,-5.1165]},{"header":{"parameterUnit":"m.s-1","parameterCategory":1,"la1":30.2991,"la2":30.254,"lo1":-89.0895,"lo2":-89.0444,"dy":0.0017,"dx":0.0017,"nx":28,"ny":28,"refTime":"2024-12-13T09:00:00:Z","depth":0,"parameterNumber":3,"parameterNumberName":"V-component_of_WINDS"},"data":[0,0,0,0,0,0,0,0,0,0,0,0,0,0,0,0,0,0,0,0,0,0,0,0,0,0,0,0,0,0,0,0,0,0,0,0,0,0,0,0,0,0,0,0,0,0,0,0,0,0,0,0,0,0,0,0,0,0,1.3264,1.3264,0,1.3267,1.3267,1.3267,1.3253,1.3252,1.3252,1.3252,1.3254,1.3254,1.3255,0,0,0,0,0,0,0,0,0,0,0,0,0,1.3249,1.3249,1.3264,1.3264,1.3264,1.3267,1.3267,1.3267,1.3253,1.3252,1.3252,1.3251,1.3254,1.3254,1.3255,0,0,0,0,0,0,0,0,0,0,0,0,0,1.3254,1.3249,1.3264,1.3257,1.3257,1.3267,1.3267,1.3267,1.3253,1.3252,1.3252,1.3251,1.3254,1.3254,1.3255,1.3271,0,0,1.3257,1.3257,0,0,0,0,0,0,0,0,1.3253,1.3254,1.3258,1.3258,1.3257,1.3259,1.3262,1.3268,1.3253,1.3254,1.3252,1.3251,1.3256,1.3257,1.3258,1.3271,1.3271,1.3257,1.3258,1.3258,1.3258,0,0,0,0,0,0,0,1.3253,1.3254,1.3265,1.3258,1.3258,1.3255,1.3255,1.3263,1.3259,1.3254,1.3253,1.3254,1.3256,1.3258,1.3258,1.3271,1.3257,1.3258,1.3258,1.3258,1.3301,1.3301,0,0,0,0,0,0,1.3253,1.3254,1.3265,1.3265,1.3254,1.3256,1.3256,1.3259,1.3258,1.3258,1.3254,1.3253,1.3257,1.3258,1.3258,1.3279,1.3258,1.3258,1.3259,1.33,1.3301,1.3302,0,0,0,0,0,0,1.3253,1.3255,1.3265,1.3259,1.326,1.3257,1.326,1.3259,1.3261,1.3258,1.3258,1.3257,1.3256,1.3257,1.3269,1.3279,1.3259,1.3259,1.3299,1.33,1.3301,1.332,0,0,0,0,0,0,1.3253,1.3255,1.326,1.3259,1.3261,1.3275,1.3261,1.326,1.3262,1.3261,1.3261,1.326,1.3256,1.3268,1.3269,1.328,1.326,1.3298,1.33,1.3301,1.3318,1.3321,1.3324,0,0,0,0,0,1.3252,1.3264,1.326,1.3262,1.3267,1.3275,1.3276,1.3271,1.3263,1.3269,1.3268,1.326,1.3278,1.3269,1.3271,1.3281,1.3298,1.3299,1.3301,1.3317,1.3321,1.3324,0,0,0,0,0,0,1.3265,1.3264,1.326,1.3272,1.3274,1.3273,1.328,1.3275,1.3279,1.3277,1.3271,1.3271,1.3284,1.3283,1.3274,1.3298,1.3286,1.3288,1.3298,1.3302,1.3304,1.3305,1.326,0,0,0,0,0,1.327,1.3276,1.3274,1.3285,1.3287,1.3283,1.3286,1.3283,1.3285,1.3285,1.3285,1.3287,1.3293,1.3297,1.3302,1.3318,1.3319,1.3326,1.3329,1.3332,1.3334,1.3345,1.3349,1.3307,1.3307,1.3307,0,0,1.3278,1.3279,1.3283,1.3288,1.3289,1.3297,1.3284,1.3292,1.3298,1.3286,1.3298,1.3298,1.33,1.3314,1.332,1.3314,1.3346,1.3334,1.3336,1.3336,1.3347,1.3351,1.3354,1.3308,1.3308,1.3308,0,0,1.3299,1.3299,1.3309,1.3311,1.3314,1.3312,1.3314,1.3315,1.3315,1.3326,1.3319,1.3326,1.3336,1.3339,1.3341,1.3366,1.336,1.3368,1.3383,1.3394,1.3397,1.34,1.3411,1.3415,1.337,1.337,1.337,0,1.3309,1.332,1.3315,1.3324,1.3328,1.3319,1.333,1.3332,1.3336,1.3339,1.3333,1.3347,1.3348,1.3364,1.3371,1.3372,1.3376,1.3368,1.3397,1.34,1.3403,1.3413,1.3417,1.3371,1.3371,1.3371,1.3371,0,1.3334,1.3342,1.335,1.3356,1.336,1.337,1.3368,1.3373,1.3369,1.3369,1.3382,1.3383,1.3389,1.3393,1.3389,1.3409,1.3406,1.3398,1.3386,1.3408,1.3418,1.3421,1.3372,1.3372,1.3372,1.3371,0,0,1.3361,1.3366,1.3369,1.3372,1.3376,1.3382,1.3393,1.34,1.3406,1.3409,1.3419,1.343,1.3424,1.3427,1.3423,1.3432,1.3455,1.3424,1.3424,1.3431,1.348,1.3487,1.3492,1.3451,1.3452,1.3452,1.3481,0,1.3382,1.3401,1.3398,1.3416,1.3425,1.3418,1.3428,1.3432,1.3432,1.344,1.344,1.3448,1.3438,1.3441,1.345,1.345,1.3465,1.3448,1.3461,1.3462,1.3462,1.3496,1.3503,1.353,1.3484,1.3485,1.3485,0,1.3409,1.3415,1.3435,1.344,1.3443,1.3452,1.346,1.3467,1.3472,1.3472,1.3477,1.3473,1.3485,1.3473,1.3491,1.348,1.3485,1.3487,1.3488,1.3489,1.3476,1.3501,1.3538,1.3543,1.3491,1.3491,1.349,0,1.3429,1.3442,1.3457,1.346,1.3465,1.3472,1.3475,1.3479,1.3485,1.3492,1.3496,1.3504,1.3509,1.3516,1.3514,1.3505,1.3533,1.352,1.3535,1.3535,1.3541,1.3541,1.3582,1.3543,1.3543,1.3543,1.3543,0,1.3453,1.3466,1.3466,1.3475,1.349,1.3487,1.3502,1.3504,1.3509,1.3519,1.3513,1.3522,1.3519,1.3529,1.3528,1.3545,1.3546,1.3548,1.3547,1.3549,1.3549,1.3553,1.3552,1.3544,1.3544,1.3543,1.3543,0,1.3478,1.3478,1.3494,1.3499,1.35,1.3511,1.3516,1.3525,1.3526,1.3539,1.3542,1.3543,1.3555,1.3554,1.3567,1.3566,1.3587,1.3584,1.3586,1.3586,1.3601,1.36,1.3646,1.3653,1.3608,1.3609,1.3609,0,1.3494,1.3504,1.3511,1.3518,1.3521,1.3532,1.3538,1.3537,1.3544,1.3552,1.3561,1.3572,1.3581,1.36,1.3603,1.3613,1.3611,1.3627,1.3613,1.3615,1.3614,1.3614,1.3616,1.363,1.363,1.3631,1.3631,0,1.3523,1.3524,1.3533,1.3544,1.3552,1.356,1.3567,1.3573,1.3572,1.3581,1.3593,1.3601,1.3615,1.3627,1.3638,1.3641,1.3637,1.3635,1.364,1.3642,1.3643,1.3645,1.3595,1.3634,1.3634,1.3634,1.3634,1.3633,1.3545,1.3555,1.3562,1.3574,1.358,1.3587,1.3597,1.36,1.3611,1.3623,1.3621,1.3636,1.3644,1.3658,1.3662,1.3674,1.3669,1.3674,1.3676,1.3678,1.3681,1.3641,1.3676,1.3676,1.3676,1.3676,1.3676,0,1.3575,1.3581,1.3591,1.3603,1.3613,1.3608,1.3617,1.3626,1.3639,1.3646,1.3656,1.3672,1.3685,1.3689,1.3702,1.3711,1.3709,1.3714,1.3714,1.3716,1.3684,1.368,1.3715,1.3715,1.3715,1.3715,1.3715,1.3715,1.3592,1.361,1.3612,1.3633,1.3638,1.3653,1.3658,1.3666,1.3673,1.3691,1.3702,1.3705,1.3712,1.3725,1.3737,1.3739,1.3744,1.375,1.3751,1.3721,1.3717,1.3714,1.371,1.3751,1.3751,1.3782,1.3782,1.3782]}]]